This is the latest recevied weather packets stored in our database for station/object WC4PEM-14. If no packets are shown the sender has not sent any weather packets the latest 1 day(s).
| Time | Temp. | Humidity | Pressure | Rain* | Wind** | Luminosity | Snow |
|---|---|---|---|---|---|---|---|
| 1778001186 | 31.11° C | 46% | 1015.9 hPa | 0 mm | 1.34 m/s, 110° | - | - |
| 1778000885 | 30° C | 48% | 1015.8 hPa | 0 mm | 1.34 m/s, 111° | - | - |
| 1778000703 | 29.44° C | 49% | 1015.8 hPa | 0 mm | 2.24 m/s, 9° | - | - |
| 1778000586 | 29.44° C | 49% | 1015.8 hPa | 0 mm | 2.24 m/s, 9° | - | - |
| 1778000345 | 28.89° C | 50% | 1015.8 hPa | 0 mm | 1.34 m/s, 98° | - | - |
| 1778000286 | 28.89° C | 50% | 1015.8 hPa | 0 mm | 1.34 m/s, 98° | - | - |
| 1777999986 | 28.89° C | 50% | 1016 hPa | 0 mm | 0.89 m/s, 93° | - | - |
| 1777999686 | 29.44° C | 48% | 1016 hPa | 0 mm | 0.89 m/s, 9° | - | - |
| 1777999386 | 28.89° C | 50% | 1015.8 hPa | 0 mm | 1.79 m/s, 9° | - | - |
| 1777999086 | 28.89° C | 50% | 1015.9 hPa | 0 mm | 2.24 m/s, 105° | - | - |
| 1777998906 | 28.89° C | 51% | 1015.9 hPa | 0 mm | 2.24 m/s, 93° | - | - |
| 1777998786 | 28.89° C | 51% | 1015.9 hPa | 0 mm | 2.24 m/s, 93° | - | - |
| 1777998585 | 29.44° C | 51% | 1016 hPa | 0 mm | 2.24 m/s, 105° | - | - |
| 1777998551 | 29.44° C | 51% | 1016 hPa | 0 mm | 2.24 m/s, 105° | - | - |
| 1777998486 | 29.44° C | 51% | 1016 hPa | 0 mm | 2.24 m/s, 105° | - | - |
| 1777998301 | 28.89° C | 53% | 1015.9 hPa | 0 mm | 2.24 m/s, 101° | - | - |
| 1777998186 | 28.89° C | 53% | 1015.9 hPa | 0 mm | 2.24 m/s, 101° | - | - |
| 1777997886 | 28.33° C | 54% | 1015.8 hPa | 0 mm | 2.24 m/s, 93° | - | - |
| 1777997706 | 28.33° C | 53% | 1015.9 hPa | 0 mm | 2.68 m/s, 90° | - | - |
| 1777997586 | 28.33° C | 53% | 1015.9 hPa | 0 mm | 2.68 m/s, 90° | - | - |
| 1777997424 | 28.33° C | 51% | 1015.9 hPa | 0 mm | 2.68 m/s, 103° | - | - |
| 1777997286 | 28.33° C | 51% | 1015.9 hPa | 0 mm | 2.68 m/s, 103° | - | - |
| 1777997094 | 28.33° C | 51% | 1016 hPa | 0 mm | 2.24 m/s, 93° | - | - |
| 1777996986 | 28.33° C | 51% | 1016 hPa | 0 mm | 2.24 m/s, 93° | - | - |
| 1777996722 | 28.33° C | 52% | 1015.9 hPa | 0 mm | 2.24 m/s, 93° | - | - |
* Rain latest hour (hover to see other rain measurements)
** Current wind speed in m/s (hover to see current wind gust speed)